Location: Borderline Observatory
(42.7345°N, 72.8696°W)
Time: 06:42:21
(UTC-04:00)

Daily predictions for brighter satellites

Satellite Brightness Start Highest point End
(mag) Time Altitude Azimuth Time Altitude Azimuth Time Altitude Azimuth
NOSS 3-2 (A) 4.0 20:39:56 10° SW 20:45:55 67° NW 20:52:33 10° NNE
ERS-1 Rocket 3.9 20:44:45 10° SE 20:49:10 32° ENE 20:53:36 10° N
Cosmos 1933 Rocket 4.3 20:46:47 10° SSW 20:51:03 58° W 20:55:22 10° N
ARGOS 4.4 20:48:17 10° ESE 20:52:34 25° ENE 20:56:52 10° N
Cosmos 1939 Rocket 2.9 20:50:11 10° SSE 20:54:19 80° ENE 20:58:26 10° N
Spot 2 Rocket 4.4 20:52:18 10° S 20:57:15 51° W 21:02:14 10° NNW
USA 215 3.9 20:51:50 10° ESE 20:58:06 49° NNE 21:04:23 10° NW
Cosmos 1408 3.7 20:55:11 10° SSE 20:58:20 26° E 21:01:29 10° NNE
ISS -3.8 20:57:45 10° WSW 21:01:00 84° NNW 21:04:16 10° NE
Resurs 01 Rocket 3.4 21:00:30 10° SSW 21:04:29 33° W 21:08:31 10° NNW
Tiangong 2 2.8 21:03:45 10° W 21:06:25 24° SSW 21:09:02 10° SSE
NOSS 3-2 (C) 4.1 21:01:19 10° SW 21:07:19 63° NW 21:13:57 10° NNE
Cosmos 2279 Rocket 4.3 21:05:36 10° N 21:11:42 51° ENE 21:17:44 10° SSE
Meteor 2-3 Rocket 4.0 21:06:07 10° SSW 21:11:49 74° W 21:17:30 10° N
CZ-4B DEB 2.5 21:09:46 10° SSE 21:12:41 68° ENE 21:15:36 10° N
Okean 1-7 3.1 21:10:19 10° N 21:14:43 66° E 21:19:05 10° SSE
Cosmos 1825 2.7 21:11:36 10° SSE 21:15:09 40° E 21:18:43 10° NNE
CENTAUR R/B 2.5 21:12:15 10° SSW 21:18:07 61° ESE 21:24:48 10° NE
Cosmos 1782 2.9 21:16:31 10° N 21:20:30 62° E 21:24:10 12° SSE
Cosmos 2142 Rocket 4.5 21:14:48 10° N 21:20:58 88° E 21:27:07 10° S
Cosmos 2344 3.9 21:14:47 10° S 21:21:54 43° ESE 21:29:35 10° NE
SPOT 5 3.8 21:17:36 13° SE 21:21:57 37° ENE 21:26:46 10° N
Shenzhou-11 Module 4.4 21:20:42 10° WSW 21:22:23 14° SSW 21:24:06 10° S
Envisat 4.2 21:19:36 10° SSW 21:24:23 41° W 21:29:12 10° NNW
MetOp-A 4.3 21:19:56 11° SSE 21:24:53 58° ENE 21:30:08 10° N
Cosmos 372 Rocket 4.0 21:20:17 10° S 21:25:17 55° ESE 21:30:16 10° NNE
H-2A ROCKET BODY 3.8 21:29:00 10° SSW 21:31:07 13° SSE 21:32:05 13° SSE
Cosmos 1703 Rocket 4.3 21:27:20 10° NNW 21:31:40 54° W 21:35:54 10° S
SPOT 1/Viking Rocket 4.4 21:29:53 16° SE 21:33:27 35° ENE 21:38:10 10° N
DNEPR-1 R/B 3.7 21:29:09 10° SSW 21:34:24 78° ESE 21:38:54 10° NE
Cosmos 1943 Rocket 2.1 21:28:56 10° SSW 21:34:29 71° ESE 21:40:02 10° NNE
Cosmos 1269 Rocket 4.0 21:31:45 10° NNW 21:37:04 75° ENE 21:41:09 17° SSE
Cosmos 1125 Rocket 3.5 21:35:10 10° SSW 21:40:26 90° ESE 21:45:41 10° NNE
deb Kosmos-1763 4.1 21:36:51 10° NNW 21:40:38 88° ENE 21:43:07 20° SSE
Cosmos 1862 3.6 21:38:56 17° SSE 21:41:47 48° E 21:45:37 10° NNE
Helios 1B rocket 3.3 21:38:03 10° N 21:42:03 51° WNW 21:46:02 10° SSW
Cosmos 1733 Rocket 3.6 21:40:35 19° SSE 21:43:08 39° E 21:47:10 10° NNE
Cosmos 1340 2.6 21:45:22 10° N 21:49:10 87° ENE 21:51:34 22° S
NOAA 11 4.3 21:44:20 12° S 21:49:30 75° WSW 21:55:01 10° NNW
Lacrosse 4 Rocket 1.5 21:47:30 10° NNW 21:52:02 85° ENE 21:54:34 25° SSE
Cosmos 2369 Rocket 3.5 21:54:44 10° SW 22:00:06 43° WNW 22:05:33 10° NNE
ATLAS CENTAUR R/B 3.0 22:02:49 18° E 22:02:49 18° E 22:04:23 10° ENE
SL-08 RB Rocket 3.7 22:00:56 24° SSE 22:03:46 83° ENE 22:08:27 10° N
Cosmos 158 Rocket 4.5 22:02:07 10° NNW 22:06:50 50° WSW 22:10:14 18° S
Cosmos 1606 4.0 22:03:43 10° NNW 22:07:13 36° W 22:10:13 13° SSW
Cosmos 494 Rocket 4.4 22:02:16 10° N 22:07:22 50° ENE 22:09:45 29° SE
Cosmos 1833 4.3 22:02:28 10° NNW 22:08:16 80° WSW 22:11:43 25° SSE
Cosmos 1867 3.9 22:03:05 10° NNW 22:08:28 55° NE 22:11:15 27° ESE
H-2A R/B 2.1 22:11:05 26° SSE 22:14:13 83° ENE 22:19:34 10° NNW
CARTOSAT-1 4.2 22:16:12 32° ESE 22:17:26 40° ENE 22:21:29 10° N
Cosmos 2297 Rocket 4.2 22:14:35 10° N 22:18:08 17° NE 22:21:29 11° E
ATLAS 5 CENTAUR R/B 2.8 22:13:13 10° NW 22:19:08 57° WSW 22:22:52 25° S
GPS 2-04 Rocket1 4.4 22:16:59 10° WSW 22:18:45 17° SSW 22:18:45 17° SSW
Cosmos 1674 Rocket 3.4 22:15:19 10° N 22:19:40 76° E 22:21:11 39° SSE
Cosmos 1378 Rocket 4.1 22:15:41 10° N 22:19:55 42° ENE 22:20:59 35° ESE
Lacrosse 5 rocket 3.4 22:18:17 10° W 22:21:19 25° NNW 22:24:27 10° NNE
Landsat 7 3.8 22:21:54 36° SE 22:23:45 69° ENE 22:28:30 10° N
ERS-1 Rocket 4.4 22:23:37 11° SSW 22:27:54 32° W 22:32:23 10° NNW
Cosmos 1656 Rocket 3.6 22:25:37 10° SSW 22:31:04 90° WNW 22:36:38 10° NNE
BREEZE-M DEB (TANK) 3.6 22:27:42 10° WNW 22:31:24 87° SSW 22:40:24 21° ESE
ARGOS 4.0 22:28:52 18° SSW 22:32:31 46° W 22:37:41 10° NNW
Meteor 1-27 Rocket 4.4 22:28:07 10° NNW 22:33:40 51° W 22:37:24 20° SSW
H-2A R/B 2.7 22:33:43 34° E 22:34:16 35° ENE 22:38:02 10° N
Okean 3 3.4 22:30:39 10° N 22:34:50 67° E 22:35:35 54° SE
Nadezhda 4 Rocket 4.1 22:30:14 15° SSW 22:35:25 73° W 22:41:36 10° N
Cosmos 1092 Rocket 3.9 22:31:56 27° S 22:35:32 80° E 22:41:42 10° N
IGS 5A 3.5 22:36:31 51° ESE 22:37:13 61° ENE 22:41:20 10° N
ISS -1.2 22:35:15 10° WNW 22:37:51 22° NNW 22:40:28 10° NE
Terra 1.8 22:37:34 45° SE 22:38:55 68° ENE 22:43:40 10° N
USA 215 3.5 22:37:58 32° SSE 22:41:00 58° SW 22:47:29 10° NW
Meteor 1-20 Rocket 4.5 22:51:20 43° SE 22:52:34 51° E 22:58:03 10° NNE
Cosmos 1437 3.7 22:53:17 10° NNW 22:56:09 42° W 22:56:09 42° W
Cosmos 1908 Rocket 3.6 22:55:35 49° SSW 22:56:44 75° W 23:01:12 10° N
Meteor 1-25 Rocket 4.3 22:59:06 48° SSE 23:00:38 67° E 23:06:26 10° NNE
ARGOS Delta rocket 4.2 22:56:47 10° NNE 23:00:40 41° E 23:00:40 41° E
CZ-2C R/B 4.2 23:01:01 10° NE 23:04:11 20° E 23:04:11 20° E
Cosmos 1633 4.2 23:07:12 24° NE 23:07:12 24° NE 23:09:05 10° NNE
Milstar 3 3.9 22:57:59 10° WSW 23:05:32 29° S 23:05:32 29° S
Cosmos 2251 Rocket 3.8 23:01:15 10° NNW 23:06:25 60° WSW 23:07:41 46° SSW
Okean 2 Rocket 3.3 23:08:46 56° E 23:08:46 56° E 23:12:53 10° NNE
Cosmos 2227 Rocket 2.9 23:03:09 10° NNW 23:08:32 43° ENE 23:10:00 36° E
CENTAUR R/B 4.3 23:03:39 10° W 23:09:14 33° NW 23:15:33 10° NNE
DELTA 2 DEB (DPAF) 4.3 23:14:24 57° E 23:14:30 57° ENE 23:18:54 10° N
Cosmos 2219 3.4 23:10:10 10° NNW 23:15:51 63° WSW 23:17:12 48° SSW
Spot 4 3.7 23:17:07 71° SE 23:17:37 82° ENE 23:22:27 10° NNW
deb Chang Zheng 4 3.5 23:15:18 10° NNE 23:19:46 85° ESE 23:19:47 85° ESE
CZ-4 R/B 3.6 23:15:32 10° NNE 23:20:12 85° ESE 23:20:28 79° S
Cosmos 1812 3.2 23:17:00 10° NNW 23:20:33 57° WNW 23:20:33 57° WNW
Cosmos 1782 Rocket 3.7 23:23:54 62° WSW 23:24:13 65° W 23:28:36 10° N
GEOS 3 Rocket 3.8 23:30:20 52° SW 23:30:46 54° WSW 23:35:54 10° NW
Cosmos 2369 4.0 23:33:38 49° E 23:33:38 49° E 23:38:52 10° NE
Cosmos 1980 Rocket 4.2 23:35:37 14° E 23:35:37 14° E 23:37:11 10° ENE
Meteor 1-11 Rocket 4.2 23:38:32 48° ESE 23:38:51 48° E 23:44:32 10° NNE
Meteor 2-4 Rocket 4.3 23:34:48 10° N 23:39:51 41° ENE 23:40:11 40° E
Gbstr 26 Del rocket 3.4 23:35:52 10° NW 23:39:33 56° NNW 23:39:33 56° NNW
ATLAS CENTAUR R/B 2.7 23:39:00 29° W 23:40:09 35° NW 23:43:42 10° NNE
Cosmos 405 Rocket 4.1 23:39:12 10° NNW 23:41:56 33° WNW 23:41:56 33° WNW
Cosmos 1655 Rocket 4.2 23:42:10 44° SW 23:44:05 66° W 23:50:19 10° N
Cosmos 1975 Rocket 3.9 23:41:07 10° NNW 23:45:19 41° W 23:45:22 41° W
Cosmos 407 Rocket 4.4 23:41:07 10° N 23:46:04 37° ENE 23:46:45 35° E
CZ-4C R/B 3.8 23:46:58 62° NW 23:46:58 62° NW 23:50:33 10° NNW
Okean 1 4.3 23:47:14 10° NNW 23:50:24 43° WNW 23:50:24 43° WNW
ALOS 2 3.4 23:53:43 42° NE 23:53:43 42° NE 23:57:24 10° N
BREEZE M DEB (TANK) 4.5 23:51:20 10° W 23:56:12 31° NNW 23:57:09 25° NNE
